Location: Menands
(42.6920°N, 73.7246°W)
Time: 17:06:09
(UTC+00:00)

Cosmos 2058 - Pass Details

Date: 18 February 2026
Orbit: 526 x 538 km, 82.5° (Epoch: 12 March)

Event Time Altitude Azimuth Distance (km) Brightness Sun altitude
Rises 23:30:56 0° 178° (S) 2,648 6.4 -11.7°
Reaches altitude 10° 23:33:05 10° 175° (S) 1,763 5.4 -12.1°
Maximum altitude 23:36:54 61° 95° (E) 604 2.7 -12.8°
Drops below altitude 10° 23:40:44 10° 15° (NNE) 1,777 5.2 -13.5°
Sets 23:42:54 0° 12° (NNE) 2,672 6.2 -13.9°
